Location: Newark
(38.1089°N, 103.8675°W)
Time: 00:09:40
(UTC+00:00)

Envisat - Visible Passes

Search period start: 15 December 2019 00:00
Search period end: 25 December 2019 00:00
Orbit: 764 x 766 km, 98.1° (Epoch: 14 December)

Date Brightness Start Highest point End Pass type
(mag) Time Alt. Az. Time Alt. Az. Time Alt. Az.
15 Dec 3.4 01:08:01 10° S 01:13:04 67° WSW 01:18:07 10° NNW visible
15 Dec 4.2 13:18:39 10° NNE 13:23:35 48° E 13:28:28 10° S visible
16 Dec 3.1 00:31:25 10° SSE 00:36:21 54° ENE 00:41:18 10° N visible
16 Dec 5.8 02:12:37 10° SW 02:15:39 16° W 02:18:43 10° NW visible
16 Dec 5.7 12:42:47 10° NE 12:46:36 21° E 12:50:24 10° SE visible
17 Dec 4.5 01:33:59 10° SSW 01:38:37 36° W 01:43:18 10° NNW visible
18 Dec 3.0 00:56:42 10° SSE 01:01:47 85° WSW 01:06:53 10° NNW visible
18 Dec 4.7 13:07:32 10° NNE 13:12:15 38° E 13:16:56 10° SSE visible
19 Dec 3.3 00:20:22 10° SE 00:25:07 42° ENE 00:29:53 10° N visible
19 Dec 5.5 02:00:34 10° SW 02:04:17 20° W 02:08:01 10° NW visible
19 Dec 6.0 12:32:03 10° NE 12:35:14 17° E 12:38:23 10° SE visible
20 Dec 4.0 01:22:26 10° S 01:27:18 47° W 01:32:11 10° NNW visible
20 Dec 3.5 13:32:44 10° NNE 13:37:49 69° ESE 13:42:51 10° S visible
21 Dec 2.9 00:45:27 10° SSE 00:50:30 76° ENE 00:55:36 10° N visible
21 Dec 6.2 02:28:47 10° WSW 02:30:03 11° W 02:31:17 10° WNW visible
21 Dec 5.1 12:56:29 10° NE 13:00:55 29° E 13:05:19 10° SSE visible
22 Dec 3.6 00:09:24 10° SE 00:13:54 33° ENE 00:18:26 10° N visible
22 Dec 5.1 01:48:43 10° SSW 01:52:55 26° W 01:57:08 10° NW visible
22 Dec 6.2 12:21:39 10° ENE 12:23:49 13° E 12:26:00 10° ESE visible
23 Dec 3.5 01:11:00 10° S 01:15:59 60° W 01:21:02 10° NNW visible
23 Dec 3.9 13:21:32 10° NNE 13:26:31 53° E 13:31:27 10° S visible
24 Dec 3.0 00:34:17 10° SSE 00:39:15 59° ENE 00:44:15 10° N visible
24 Dec 6.0 02:15:56 10° WSW 02:18:38 14° W 02:21:21 10° WNW visible
24 Dec 5.6 12:45:33 10° NE 12:49:34 23° E 12:53:33 10° SSE visible
